[[{"header":{"parameterUnit":"m.s-1","parameterCategory":1,"la1":30.2992,"la2":30.254,"lo1":-89.0895,"lo2":-89.0443,"dy":0.0025,"dx":0.0025,"nx":19,"ny":19,"refTime":"2026-05-10T21:00:00:Z","depth":0,"parameterNumber":2,"parameterNumberName":"U-component_of_WINDS"},"data":[0,0,0,0.8997,0.9,0.9118,0.9118,0.9259,0.926,0,0,0,0,0,0,0,0,0,0,0,0.8954,0.8955,0.8997,0.9,0.9118,0.9118,0.9259,0.926,0,0,0,0,0,0,0,0,0,0,0,0.8954,0.8955,0.8955,0.9,0.9117,0.9118,0.9258,0.9173,0,0,0,0,0,0,0,0,0,0,0.9061,0.9012,0.8954,0.8956,0.9001,0.9117,0.9118,0.9169,0.9179,0.9201,0,0.9216,0,0.924,0.9269,0.9269,0,0,0,0.9006,0.9005,0.9044,0.8956,0.9002,0.9117,0.9066,0.9175,0.9185,0.9213,0.9218,0.9224,0.9243,0.9269,0.927,0.9373,0.9373,0,0,0.9,0.8971,0.9037,0.905,0.9029,0.9062,0.907,0.9181,0.9186,0.9219,0.9227,0.9245,0.927,0.9271,0.9373,0.9373,0,0,0,0.8977,0.8966,0.9003,0.9044,0.9066,0.9066,0.9074,0.9181,0.9195,0.9229,0.9247,0.9271,0.9273,0.9373,0.9373,0.9354,0,0,0,0.8973,0.8953,0.9,0.8984,0.9064,0.9125,0.9071,0.9188,0.9201,0.9246,0.9271,0.9274,0.9372,0.9373,0.9354,0.9349,0,0,0,0.8949,0.895,0.8965,0.8982,0.9032,0.9123,0.9144,0.9191,0.9212,0.9269,0.9274,0.9372,0.9373,0.9354,0.935,0.9368,0,0,0,0.8916,0.8945,0.8964,0.9004,0.903,0.9111,0.9144,0.9206,0.9253,0.9272,0.9372,0.9373,0.9354,0.935,0.9368,0.9378,0.938,0,0,0.8937,0.8947,0.8973,0.8993,0.9063,0.9095,0.9163,0.9233,0.9266,0.9336,0.9339,0.9354,0.935,0.9368,0.94,0.9401,0,0,0,0.897,0.8989,0.9014,0.9057,0.9112,0.9159,0.9222,0.9249,0.931,0.9295,0.9367,0.9366,0.9378,0.9384,0.9385,0.9397,0.9375,0.9375,0.9375,0.8958,0.8998,0.9045,0.91,0.9142,0.9209,0.9247,0.9295,0.9322,0.9339,0.936,0.9374,0.938,0.9381,0.9394,0.9369,0.9369,0.9369,0.9369,0.8993,0.9025,0.9064,0.9122,0.9166,0.9216,0.9283,0.9302,0.9356,0.9361,0.9374,0.9375,0.9381,0.9394,0.9368,0.9368,0.9368,0.9368,0.9369,0.8988,0.9011,0.9044,0.9113,0.9163,0.9219,0.927,0.9308,0.9344,0.9357,0.9383,0.9384,0.9389,0.9367,0.9367,0.9367,0.9367,0.9367,0.9368,0.897,0.9008,0.9045,0.9109,0.9143,0.9194,0.9264,0.93,0.9349,0.9373,0.9373,0.94,0.9374,0.9366,0.9368,0.9368,0.9368,0.9368,0.9368,0.8988,0.8991,0.9048,0.9083,0.9163,0.921,0.926,0.933,0.9365,0.939,0.9415,0.939,0.9403,0.9402,0.9396,0.9406,0.9406,0.9406,0.9406,0.8983,0.8994,0.9063,0.9117,0.9174,0.9226,0.9293,0.9349,0.9408,0.9433,0.9438,0.9434,0.9431,0.9445,0.9444,0.9439,0.9459,0.9459,0.9459,0.8997,0.9016,0.9063,0.9121,0.9187,0.9243,0.9308,0.937,0.9437,0.9462,0.9454,0.9451,0.9445,0.9441,0.9462,0.9459,0.9451,0,0]},{"header":{"parameterUnit":"m.s-1","parameterCategory":1,"la1":30.2992,"la2":30.254,"lo1":-89.0895,"lo2":-89.0443,"dy":0.0025,"dx":0.0025,"nx":19,"ny":19,"refTime":"2026-05-10T21:00:00:Z","depth":0,"parameterNumber":3,"parameterNumberName":"V-component_of_WINDS"},"data":[0,0,0,-1.8694,-1.8692,-1.8589,-1.8588,-1.8467,-1.8466,0,0,0,0,0,0,0,0,0,0,0,-1.8731,-1.873,-1.8694,-1.8692,-1.8589,-1.8588,-1.8467,-1.8466,0,0,0,0,0,0,0,0,0,0,0,-1.8731,-1.8731,-1.873,-1.8691,-1.8589,-1.8588,-1.8467,-1.8541,0,0,0,0,0,0,0,0,0,0,-1.8639,-1.868,-1.8731,-1.873,-1.8691,-1.8589,-1.8588,-1.8544,-1.8536,-1.8518,0,-1.8503,0,-1.8483,-1.8458,-1.8458,0,0,0,-1.8686,-1.8687,-1.8653,-1.873,-1.869,-1.8589,-1.8634,-1.854,-1.8531,-1.8507,-1.8502,-1.8497,-1.8481,-1.8457,-1.8457,-1.8368,-1.8368,0,0,-1.8692,-1.8716,-1.8659,-1.8648,-1.8665,-1.8637,-1.8631,-1.8534,-1.8529,-1.8501,-1.8494,-1.8479,-1.8457,-1.8456,-1.8368,-1.8368,0,0,0,-1.8712,-1.872,-1.8688,-1.8653,-1.8634,-1.8634,-1.8627,-1.8533,-1.8521,-1.8492,-1.8477,-1.8456,-1.8455,-1.8368,-1.8368,-1.8383,0,0,0,-1.8715,-1.8731,-1.8691,-1.8705,-1.8636,-1.8582,-1.8629,-1.8528,-1.8516,-1.8478,-1.8456,-1.8454,-1.8369,-1.8368,-1.8383,-1.8385,0,0,0,-1.8735,-1.8734,-1.8721,-1.8706,-1.8663,-1.8583,-1.8566,-1.8525,-1.8507,-1.8458,-1.8453,-1.8369,-1.8368,-1.8382,-1.8385,-1.8368,0,0,0,-1.8763,-1.8735,-1.8722,-1.8684,-1.8664,-1.8594,-1.8566,-1.8512,-1.8471,-1.8455,-1.8369,-1.8368,-1.8382,-1.8385,-1.8368,-1.8358,-1.8356,0,0,-1.8741,-1.8733,-1.8709,-1.8694,-1.8633,-1.8608,-1.8547,-1.8487,-1.8461,-1.84,-1.8398,-1.8383,-1.8385,-1.8368,-1.8339,-1.8338,0,0,0,-1.871,-1.8693,-1.8671,-1.8634,-1.8588,-1.8549,-1.8495,-1.8473,-1.8421,-1.8435,-1.8372,-1.8372,-1.8362,-1.8355,-1.8354,-1.8343,-1.8367,-1.8367,-1.8367,-1.871,-1.8679,-1.8637,-1.8593,-1.8557,-1.8503,-1.8471,-1.8431,-1.8409,-1.8395,-1.8376,-1.8363,-1.8357,-1.8355,-1.8344,-1.8369,-1.8369,-1.8369,-1.8369,-1.8673,-1.8643,-1.8616,-1.8566,-1.8533,-1.8489,-1.8436,-1.8423,-1.8377,-1.8374,-1.8363,-1.8361,-1.8355,-1.8344,-1.837,-1.837,-1.837,-1.837,-1.837,-1.8669,-1.8649,-1.8623,-1.8567,-1.8526,-1.8483,-1.8441,-1.8412,-1.8385,-1.8374,-1.8351,-1.835,-1.8346,-1.8365,-1.8365,-1.8365,-1.8365,-1.8365,-1.8365,-1.8674,-1.8644,-1.8613,-1.8563,-1.8535,-1.8496,-1.8442,-1.8414,-1.8375,-1.8357,-1.8357,-1.8336,-1.8361,-1.8367,-1.8364,-1.8364,-1.8364,-1.8364,-1.8364,-1.8646,-1.8648,-1.8599,-1.8572,-1.8511,-1.8472,-1.8437,-1.8382,-1.8355,-1.8335,-1.8317,-1.8341,-1.833,-1.8331,-1.8336,-1.8324,-1.8324,-1.8324,-1.8324,-1.8641,-1.8634,-1.8578,-1.8536,-1.8492,-1.8455,-1.8401,-1.8359,-1.8316,-1.8297,-1.8295,-1.8299,-1.8301,-1.8289,-1.8291,-1.8295,-1.8273,-1.8273,-1.8273,-1.8622,-1.8609,-1.8568,-1.8527,-1.8478,-1.8436,-1.8383,-1.8336,-1.8287,-1.8271,-1.8281,-1.8283,-1.829,-1.8294,-1.8277,-1.828,-1.8287,0,0]}]]